DW8913 Weather Reports


time (UTC)temp
F
wind
direction
speed
knots
gust
knots
rain 1hr
in
rain 24hr
in
rain mn
in
humidity
%
barometer
mb
20260504044517 50 134 0.0 1.7 0.00 0.00 0.00 67 1015.2
20260504043106 50 150 0.0 1.7 0.00 0.00 0.00 66 1015.0
20260504041530 50 126 0.0 2.6 0.00 0.00 0.00 69 1015.1
20260504040106 50 92 0.0 0.9 0.00 0.00 0.00 67 1014.9
20260504034541 50 141 0.0 1.7 0.00 0.00 0.00 68 1014.8
20260504033019 50 113 0.0 0.9 0.00 0.00 0.00 68 1014.7
20260504031559 50 131 0.0 2.6 0.00 0.00 0.00 68 1014.7
20260504030025 50 131 0.0 0.9 0.00 0.00 0.00 68 1014.6
20260504024603 49 152 0.0 0.9 0.00 0.00 0.00 69 1014.6
20260504023031 49 214 0.0 0.0 0.00 0.00 0.00 70 1014.7
20260504021502 49 228 0.0 0.0 0.00 0.00 0.00 69 1014.6
20260504020048 50 228 0.0 0.0 0.00 0.00 0.00 69 1014.5
20260504014510 50 228 0.0 0.0 0.00 0.00 0.00 64 1014.4
20260504013105 50 288 0.0 0.0 0.00 0.00 0.00 62 1014.4
20260504011525 50 288 0.0 0.0 0.00 0.00 0.00 61 1014.3
20260504010104 50 288 0.0 0.0 0.00 0.00 0.00 61 1014.1
20260504004540 51 288 0.0 0.0 0.00 0.00 0.00 60 1013.8
20260504003108 51 285 0.0 0.0 0.00 0.00 0.00 57 1013.6
20260504001546 52 284 0.0 0.0 0.00 0.00 0.00 52 1013.4
20260504000010 53 284 0.0 0.0 0.00 0.00 0.00 52 1013.3
20260503234554 55 281 0.0 0.9 0.00 0.00 0.00 46 1013.3
20260503233029 56 348 0.0 2.6 0.00 0.00 0.00 42 1013.3
20260503231604 57 58 0.0 1.7 0.00 0.00 0.00 40 1013.1
20260503230033 58 200 0.9 4.3 0.00 0.00 0.00 39 1013.2
20260503224611 58 228 0.9 4.3 0.00 0.00 0.00 37 1013.0
20260503223039 58 310 0.9 4.3 0.00 0.00 0.00 34 1013.0
20260503221512 59 68 0.0 4.3 0.00 0.00 0.00 36 1012.9
20260503220059 59 269 1.7 6.1 0.00 0.00 0.00 34 1012.9
20260503214523 59 235 2.6 7.0 0.00 0.00 0.00 36 1012.7
20260503213107 59 141 1.7 6.1 0.00 0.00 0.00 35 1012.7
20260503211540 60 323 2.6 7.0 0.00 0.00 0.00 32 1012.5
20260503210008 59 323 0.0 5.2 0.00 0.00 0.00 34 1012.5
20260503204551 59 175 2.6 5.2 0.00 0.00 0.00 33 1012.5
20260503203022 59 116 0.9 6.1 0.00 0.00 0.00 37 1012.5
20260503201606 60 148 2.6 7.0 0.00 0.00 0.00 34 1012.6
20260503200035 60 217 0.9 6.1 0.00 0.00 0.00 35 1012.6
20260503194508 61 185 2.6 7.0 0.00 0.00 0.00 33 1012.6
20260503193054 61 304 3.5 7.8 0.00 0.00 0.00 33 1012.7
20260503191518 60 33 1.7 7.0 0.00 0.00 0.00 34 1012.8
20260503190101 60 136 1.7 6.1 0.00 0.00 0.00 36 1012.9
20260503184528 61 299 2.6 5.2 0.00 0.00 0.00 34 1013.0
20260503183001 61 77 1.7 6.1 0.00 0.00 0.00 34 1013.1
20260503181545 60 148 2.6 7.0 0.00 0.00 0.00 35 1013.2
20260503180016 60 286 1.7 7.0 0.00 0.00 0.00 38 1013.1
20260503174620 60 50 1.7 7.0 0.00 0.00 0.00 32 1013.1
20260503173040 60 321 1.7 6.1 0.00 0.00 0.00 34 1013.2
20260503171504 59 1 1.7 5.2 0.00 0.00 0.00 39 1013.2
20260503130107 49 55 0.9 7.0 0.00 0.00 0.00 59 1013.3
20260503100121 43 63 0.0 3.5 0.00 0.00 0.00 74 1011.1
20260503081520 44 20 0.0 1.7 0.00 0.00 0.00 70 1010.3
20260503071538 46 41 0.0 0.9 0.00 0.00 0.00 63 1009.9
20260503070110 47 155 0.0 0.9 0.00 0.00 0.00 61 1009.9
20260503054523 50 95 0.9 4.3 0.00 0.00 0.00 55 1010.1
20260503053047 50 303 0.9 3.5 0.00 0.00 0.00 53 1010.1
20260503051517 51 48 0.9 3.5 0.00 0.00 0.00 54 1010.3